ON7EQ-13 Weather Reports


Display with metric or nautical units.
time (UTC)temp
F
wind
direction
speed
MPH
gust
MPH
rain 1hr
in
rain 24hr
in
rain mn
in
humidity
%
barometer
mb
20260506213409 52 70 0.0 0.0 0.00 0.00 0.00 79 1011.6
20260506212410 52 70 0.0 0.0 0.00 0.00 0.00 77 1011.5
20260506211409 52 70 0.0 0.0 0.00 0.00 0.00 76 1011.4
20260506210409 52 70 0.0 1.0 0.00 0.00 0.00 77 1011.4
20260506205409 52 75 0.0 2.0 0.00 0.00 0.00 76 1011.3
20260506204409 52 70 0.0 1.0 0.00 0.00 0.00 76 1011.2
20260506203409 52 70 0.0 2.0 0.00 0.00 0.00 75 1011.1
20260506202409 53 70 0.0 4.0 0.00 0.00 0.00 74 1011.1
20260506201409 53 40 0.0 5.0 0.00 0.00 0.00 74 1011.1
20260506200410 53 70 0.0 6.0 0.00 0.00 0.00 74 1010.9
20260506195409 53 70 0.0 3.0 0.00 0.00 0.00 75 1010.9
20260506194409 53 55 1.0 3.0 0.00 0.00 0.00 77 1010.9
20260506193410 53 105 0.0 0.0 0.00 0.00 0.00 77 1010.8
20260506192409 53 105 0.0 4.0 0.00 0.00 0.00 74 1010.7
20260506191409 54 65 1.0 7.0 0.00 0.00 0.00 74 1010.6
20260506190409 54 85 0.0 5.0 0.00 0.00 0.00 73 1010.5
20260506185409 55 70 0.0 3.0 0.00 0.00 0.00 73 1010.4
20260506184409 55 85 0.0 2.0 0.00 0.00 0.00 72 1010.4
20260506183409 55 85 0.0 3.0 0.00 0.00 0.00 71 1010.3
20260506182409 56 65 0.0 5.0 0.00 0.00 0.00 68 1010.1
20260506181410 58 75 0.0 6.0 0.00 0.00 0.00 64 1010.0
20260506180409 60 65 1.0 5.0 0.00 0.00 0.00 61 1009.8
20260506175409 64 85 0.0 11.0 0.00 0.00 0.00 55 1009.7
20260506174409 66 80 0.0 3.0 0.00 0.00 0.00 53 1009.6
20260506173409 64 60 0.0 7.0 0.00 0.00 0.00 54 1009.4
20260506172409 62 70 3.0 12.0 0.00 0.00 0.00 59 1009.3
20260506171409 59 70 0.0 3.0 0.00 0.00 0.00 64 1009.2
20260506170409 59 55 0.0 11.0 0.00 0.00 0.00 64 1009.0
20260506165409 59 60 0.0 8.0 0.00 0.00 0.00 63 1009.0
20260506164409 59 85 2.0 3.0 0.00 0.00 0.00 64 1008.9
20260506163410 59 70 0.0 5.0 0.00 0.00 0.00 65 1008.8
20260506162409 61 60 0.0 3.0 0.00 0.00 0.00 64 1008.8
20260506161409 61 70 0.0 6.0 0.00 0.00 0.00 63 1008.6
20260506160410 62 55 0.0 10.0 0.00 0.00 0.00 62 1008.6
20260506155409 62 90 1.0 10.0 0.00 0.00 0.00 63 1008.6
20260506154409 64 55 3.0 2.0 0.00 0.00 0.00 62 1008.6
20260506153409 63 55 0.0 2.0 0.00 0.00 0.00 65 1008.5
20260506152409 63 0 0.0 3.0 0.00 0.00 0.00 64 1008.5
20260506151409 64 95 0.0 2.0 0.00 0.00 0.00 62 1008.5
20260506150409 65 70 0.0 3.0 0.00 0.00 0.00 59 1008.4
20260506145409 66 50 0.0 3.0 0.00 0.00 0.00 59 1008.3
20260506144409 67 125 0.0 1.0 0.00 0.00 0.00 58 1008.3
20260506143410 66 270 0.0 2.0 0.00 0.00 0.00 59 1008.3
20260506142409 64 270 0.0 1.0 0.00 0.00 0.00 63 1008.3
20260506141409 64 270 0.0 1.0 0.00 0.00 0.00 63 1008.3
20260506140409 64 270 0.0 3.0 0.00 0.00 0.00 60 1008.3
20260506135409 65 180 0.0 0.0 0.00 0.00 0.00 60 1008.3
20260506134409 65 180 0.0 1.0 0.00 0.00 0.00 60 1008.2
20260506133409 65 175 1.0 2.0 0.00 0.00 0.00 60 1008.2
20260506132409 67 255 0.0 3.0 0.00 0.00 0.00 58 1008.2
20260506131409 67 55 0.0 3.0 0.00 0.00 0.00 60 1008.1
20260506130409 67 110 1.0 3.0 0.00 0.00 0.00 59 1008.1
20260506125409 66 150 0.0 1.0 0.00 0.00 0.00 62 1008.1
20260506124409 64 145 0.0 2.0 0.00 0.00 0.00 66 1008.0
20260506123409 64 60 0.0 1.0 0.00 0.00 0.00 66 1008.0
20260506122409 64 80 0.0 6.0 0.00 0.00 0.00 69 1008.1
20260506121409 60 30 0.0 1.0 0.00 0.00 0.00 75 1008.0
20260506120410 58 60 0.0 0.0 0.00 0.00 0.00 80 1008.0
20260506115409 58 60 0.0 0.0 0.00 0.00 0.00 80 1008.1
20260506114410 59 60 0.0 0.0 0.00 0.00 0.00 78 1008.0
20260506113409 60 60 0.0 1.0 0.00 0.00 0.00 73 1008.0
20260506112409 60 60 0.0 1.0 0.00 0.00 0.00 78 1008.0
20260506111409 58 60 0.0 1.0 0.00 0.00 0.00 80 1008.1
20260506110409 59 60 0.0 0.0 0.00 0.00 0.00 79 1008.1
20260506105409 58 60 0.0 1.0 0.00 0.00 0.00 80 1008.1
20260506104409 58 60 0.0 0.0 0.00 0.00 0.00 78 1008.2
20260506103409 60 60 0.0 1.0 0.00 0.00 0.00 76 1008.1
20260506102410 61 60 0.0 1.0 0.00 0.00 0.00 74 1008.0
20260506101409 62 60 1.0 6.0 0.00 0.00 0.00 72 1008.1
20260506100410 63 100 0.0 3.0 0.00 0.00 0.00 75 1008.0
20260506095409 63 110 0.0 2.0 0.00 0.00 0.00 79 1007.9
20260506094409 60 190 0.0 1.0 0.00 0.00 0.00 82 1007.9
20260506093410 60 190 0.0 1.0 0.00 0.00 0.00 85 1007.9
20260506092409 59 195 0.0 1.0 0.00 0.00 0.00 85 1007.9
20260506091409 59 320 0.0 5.0 0.00 0.00 0.00 87 1007.9
20260506090409 58 280 0.0 0.0 0.00 0.00 0.00 91 1007.8
20260506085409 57 280 0.0 3.0 0.00 0.00 0.00 93 1007.7
20260506084409 56 275 0.0 0.0 0.00 0.00 0.00 96 1007.7
20260506083409 55 280 0.0 0.0 0.00 0.00 0.00 97 1007.7
20260506082409 54 280 0.0 0.0 0.00 0.00 0.00 99 1007.7
20260506081410 54 270 0.0 1.0 0.00 0.00 0.00 99 1007.6
20260506080409 53 160 0.0 0.0 0.00 0.00 0.00 99 1007.6
20260506073409 51 160 0.0 0.0 0.00 0.00 0.00 99 1007.6
20260506072410 51 160 0.0 0.0 0.00 0.00 0.00 99 1007.5
20260506071409 51 160 0.0 1.0 0.00 0.00 0.00 99 1007.5
20260506070409 51 160 0.0 0.0 0.00 0.00 0.00 99 1007.6
20260506062409 50 160 0.0 0.0 0.00 0.00 0.00 99 1007.3
20260506061409 50 160 0.0 0.0 0.00 0.00 0.00 99 1007.3
20260506060409 49 160 0.0 1.0 0.00 0.00 0.00 99 1007.2
20260506051410 49 160 0.0 0.0 0.00 0.00 0.00 99 1007.1
20260506050409 49 160 0.0 0.0 0.00 0.00 0.00 99 1007.1
20260506044409 49 160 0.0 1.0 0.00 0.00 0.00 99 1007.1
20260506043409 49 210 0.0 1.0 0.00 0.00 0.00 99 1007.1
20260506042410 49 60 0.0 0.0 0.00 0.00 0.00 99 1007.0
20260506041409 49 60 0.0 2.0 0.00 0.00 0.00 99 1007.0
20260506040409 49 260 0.0 0.0 0.00 0.00 0.00 98 1007.0
20260506035409 49 260 0.0 0.0 0.00 0.00 0.00 98 1007.0
20260506034409 49 260 0.0 0.0 0.00 0.00 0.00 98 1007.0
20260506033409 49 260 0.0 1.0 0.00 0.00 0.00 98 1007.0
20260506032410 49 260 0.0 0.0 0.00 0.00 0.00 98 1007.1
20260506031409 49 260 0.0 0.0 0.00 0.00 0.00 97 1007.1
20260506030409 49 260 0.0 1.0 0.00 0.00 0.00 97 1007.2
20260506025409 49 0 0.0 0.0 0.00 0.00 0.00 97 1007.3
20260506024409 49 0 0.0 0.0 0.00 0.00 0.00 97 1007.3
20260506023409 49 0 0.0 0.0 0.00 0.00 0.00 96 1007.4
20260506022424 49 0 0.0 1.0 0.00 0.00 0.00 96 1007.3
20260506021409 49 200 0.0 0.0 0.00 0.00 0.00 96 1007.4
20260506020410 49 200 0.0 4.0 0.00 0.00 0.00 95 1007.4
20260506015409 49 120 0.0 2.0 0.00 0.00 0.00 96 1007.4
20260506014409 50 120 0.0 0.0 0.00 0.00 0.00 96 1007.5
20260506013409 49 120 0.0 0.0 0.00 0.00 0.00 96 1007.5
20260506012409 50 120 0.0 1.0 0.00 0.00 0.00 96 1007.6
20260506011409 50 120 0.0 1.0 0.00 0.00 0.00 96 1007.6
20260506010409 50 50 0.0 0.0 0.00 0.00 0.00 96 1007.7
20260506005409 50 50 0.0 0.0 0.00 0.00 0.00 97 1007.7
20260506004409 50 50 0.0 1.0 0.00 0.00 0.00 97 1007.8
20260506003409 50 85 0.0 0.0 0.00 0.00 0.00 97 1007.9
20260506002409 50 85 0.0 0.0 0.00 0.00 0.00 96 1007.9
20260506001409 50 85 0.0 0.0 0.00 0.00 0.00 97 1008.0
20260506000410 50 85 0.0 0.0 0.00 0.00 0.00 97 1008.0
20260505235409 50 85 0.0 0.0 0.00 0.00 0.00 98 1008.0
20260505234409 50 85 0.0 0.0 0.00 0.00 0.00 98 1008.1
20260505233409 50 85 0.0 0.0 0.00 0.00 0.00 98 1008.2
20260505232409 50 60 0.0 0.0 0.00 0.00 0.00 99 1008.1
20260505231409 51 60 0.0 0.0 0.00 0.00 0.00 98 1008.2
20260505230409 51 60 0.0 0.0 0.00 0.00 0.00 98 1008.2
20260505225409 51 60 0.0 0.0 0.00 0.00 0.00 99 1008.3
20260505224410 51 60 0.0 0.0 0.00 0.00 0.00 99 1008.3
20260505223409 51 60 0.0 0.0 0.00 0.00 0.00 99 1008.4
20260505222409 51 60 0.0 1.0 0.00 0.00 0.00 99 1008.4
20260505221409 51 85 0.0 0.0 0.00 0.00 0.00 99 1008.4
20260505220409 51 85 0.0 0.0 0.00 0.00 0.00 99 1008.4
20260505215409 51 85 0.0 0.0 0.00 0.00 0.00 99 1008.5
20260505214409 51 85 0.0 0.0 0.00 0.00 0.00 99 1008.6